星链-1829 (STARLINK-1829 )

导读 | 星芒AI

STARLINK-1829 是 SpaceX Starlink 卫星互联网项目中的一颗低轨卫星,属于第 18 批部署的星链卫星群。该卫星于 2021 年发射,运行在约 550 公里的近地轨道,旨在为全球用户提供高速互联网服务。它采用先进的推进系统和激光通信技术,支持星间通信,提高网络效率与覆盖范围。作为星链计划的重要组成部分,STARLINK-1829 有助于实现 SpaceX 构建全球宽带网络的目标。

基本信息
目录编号:
46726
目录名称:
STARLINK-1829
国际标识:
2020-073BJ
轨道中心:
EARTH
卫星名称:
星链-1829
卫星全名:
星链-1829 (STARLINK-1829 )
卫星状态:
已陨落 最后检测时间 2025-02-04
发射日期:
2020-10-18 UTC
国别 :
美国 (US)
星等 :
--
轨道信息
数据来源 国际轨道数据
星历时间: 2025-02-04T22:53:50+0800
轨道信息已过期314天
半长轴: 6549.846km
偏心率: 0.0016805
轨道倾角: 53.008°
近地点辐角 5.147°
升交点赤经 193.754°
平近点角 63.693°
近地点: 160.703km
远地点: 182.719km
周期: 87.924分钟
每日圈数: 16.377825
详细信息
固有亮度:
5
最大亮度:
2.5
卫星平台:
Starlink V1.0
覆盖范围:
全球
运营商:
太空探索技术公司
运营商所在国:
美国
制造商(研发单位):
太空探索技术公司
制造商所在国:
美国
使用方式:
暂无
卫星简介
星链(Starlink)计划是由太空探索技术公司(SpaceX)提出的一个巨型低轨卫星互联网星座项目,计划在2019年至2024年间在太空搭建由约1.2万颗卫星组成的“星链”网络,其中1584颗将部署在地球上空550千米处的近地轨道,并从2020年开始工作。该卫星仍在工作。